Regional Weather Roundup
Issued by NWS

Home | Current Version | Previous Version | Graphics & Text | Print | Product List | Glossary On
Versions: 1 2 3 4 5 6 7 8 9 10 11 12 13 14 15 16 17 18 19 20 21 22 23 24 25 26 27 28 29 30 31 32 33 34 35 36 37 38 39 40 41 42 43 44 45 46 47 48 49 50
000
ASUS45 KBOU 031907
RWRCO

WEATHER ROUNDUP FOR COLORADO
NATIONAL WEATHER SERVICE DENVER/BOULDER CO
1200 PM MST TUE MAR 03 2015

NOTE: "FAIR" INDICATES FEW OR NO CLOUDS BELOW 12000 FEET WITH NO
SIGNIFICANT WEATHER AND/OR OBSTRUCTIONS TO VISIBILITY.

COZ001>005-013-030-031-032000-
...NORTHWEST COLORADO...

CITY           SKY/WX    TMP DP  RH WIND       PRES   REMARKS
CRAIG          LGT SNOW  30  26  85 SE3       29.73F FOG
HAYDEN         PTSUNNY   30  21  69 CALM      29.72F
MEEKER         PTSUNNY   36  26  67 SW14      29.72F
MOUNT WERNER   NOT AVBL
STEAMBOAT SPGS MOSUNNY   32  22  68 CALM      29.71F
WALDEN         SUNNY     30  19  64 SW15      29.67F WCI  19
$$

COZ006>008-011-032000-
...WEST CENTRAL VALLEYS...

CITY           SKY/WX    TMP DP  RH WIND       PRES   REMARKS
GRAND JUNCTION CLOUDY    39  31  72 NW9       29.79F
MONTROSE       PTSUNNY   39  22  50 N5        29.80F
EAGLE          NOT AVBL
RIFLE          PTSUNNY   39  28  64 W22       29.75F
DELTA          CLOUDY    43  28  55 CALM      29.79F
NUCLA          CLOUDY    37  27  65 SW14G22   29.85F
$$

COZ017>023-064>068-032000-
...SOUTHWEST COLORADO...

CITY           SKY/WX    TMP DP  RH WIND       PRES   REMARKS
DURANGO        CLOUDY    34  23  64 SW8       29.86S WCI  27
CORTEZ         CLOUDY    40  27  59 SW14      29.85F
PAGOSA SPRINGS FLURRIES  33  24  68 SW7       29.85F WCI  27
TELLURIDE      PTSUNNY   29  13  50 SE8       29.80S WCI  21
WOLF CREEK PAS CLOUDY    12  10  92 SW13G25   29.81S WCI  -3
$$

COZ009-010-012-014-032>034-037-058>063-032000-
...CENTRAL COLORADO...

CITY           SKY/WX    TMP DP  RH WIND       PRES   REMARKS
ASPEN          PTSUNNY   32  22  66 N8        29.70F WCI  25
BUENA VISTA    MOSUNNY   35  10  36 SW6       29.70F WCI  30
COPPER MTN     NOT AVBL
BERTHOUD PASS  CLOUDY    10   3  72 W16       29.66F HAZE    WCI  -7
COTTONWOOD PAS PTSUNNY   30   5  34 SW17G24   29.70F WCI  18
GUNNISON       MOSUNNY   32  18  55 SW12G17   29.78F WCI  23
KREMMLING      FLURRIES  32  23  69 N7        29.71F WCI  26
LEADVILLE      PTSUNNY   24  -1  33 W14G21    29.66F WCI  12
SALIDA         MOSUNNY   39  18  41 S12G17    29.80F
SUNLIGHT       SNOW      23  21  93 CALM        N/A  VSB 1/2
WILKERSON PASS MOSUNNY   27  14  59 SW8       29.71F WCI  18
$$

COZ069>075-032000-
...SAN LUIS VALLEY/SANGRE DE CRISTO MOUNTAINS...

CITY           SKY/WX    TMP DP  RH WIND       PRES   REMARKS
ALAMOSA        NOT AVBL
LA VETA PASS   MOSUNNY   32  18  55 S12G24    29.78F WCI  23
SAGUACHE       PTSUNNY   34  19  55 S14       29.78S WCI  24
$$

COZ035-036-038>040-032000-
...NORTHERN COLORADO FRONT RANGE...

CITY           SKY/WX    TMP DP  RH WIND       PRES   REMARKS
DENVER INTL AP FLURRIES  19  14  81 NE15      29.86F WCI   5
DMNS CITY PARK   N/A     20  14  78 NE8       29.86F WCI  10
AURORA         LGT SNOW  19  14  83 NE13      29.86F FOG     WCI   6
FRONT RANGE AP CLOUDY    19  18  93 N10G17    29.87  WCI   8
ERIE MUNI ARPT LGT SNOW  22  15  76 N9        29.89F WCI  12
BOULDER MUN AP LGT SNOW  23  18  80 NE8       29.88F WCI  14
CENTENNIAL     CLOUDY    19  15  84 NE9       29.84F WCI   8
BROOMFIELD     NOT AVBL
FORT COLLINS   MOSUNNY   21  12  68 NE12      29.91F WCI   9
LONGMONT       LGT SNOW  29  16  58 NE10      29.91F WCI  20
$$

COZ041-046-047-076>085-087-088-032000-
...PIKES PEAK/PALMER DIVIDE AND SOUTHERN FOOTHILLS...

CITY           SKY/WX    TMP DP  RH WIND       PRES   REMARKS
COLO. SPRINGS  PTSUNNY   28  20  71 NE21      29.79S WCI  15
A. F. ACADEMY  CLOUDY    23  17  79 N17G23    29.78R WCI   9
ELLICOTT       NOT AVBL
FALCON         CLOUDY    25  18  76 N17       29.78S WCI  11
FORT CARSON    MOSUNNY   32  21  65 N14       29.77S WCI  22
LIMON          NOT AVBL
MONUMENT HILL  CLOUDY    19  18  93 NE7       29.78F WCI  10
TRINIDAD       PTSUNNY   48  21  34 SE13      29.76F
$$

COZ042>045-048>051-090-091-032000-
...NORTHEAST COLORADO...

CITY           SKY/WX    TMP DP  RH WIND       PRES   REMARKS
GREELEY ARPT   MOSUNNY   23  12  63 NE14      29.90F WCI  11
AKRON          FLURRIES  22  12  65 N21G29    29.89F WCI   6
BURLINGTON     CLOUDY    26  16  65 N22       29.88R WCI  12
WRAY           CLOUDY    28  15  58 N18G24    29.95R WCI  16
STERLING       CLOUDY    27  12  54 N14G21    29.95F WCI  15
HOLYOKE        NOT AVBL
FORT MORGAN    FLURRIES  22  14  70 N14       29.93F WCI   9
$$

COZ086-089-092>099-032000-
...SOUTHEAST COLORADO...

CITY           SKY/WX    TMP DP  RH WIND       PRES   REMARKS
PUEBLO         MOSUNNY   39  27  62 E18       29.82R
LA JUNTA       CLOUDY    36  28  73 NE21      29.86R
LAMAR          CLOUDY    35  29  78 NE18      29.87R WCI  24
SPRINGFIELD      N/A     38  32  79 NE21      29.84R
$$



USA.gov is the U.S. government's official web portal to all federal, state and local government web resources and services.